Hourly Weather Roundup
Issued by NWS Central Illinois

Home | Current Version | Previous Version | Graphics & Text | Print | Product List | Glossary On
Versions: 1 2 3 4 5 6 7 8 9 10 11 12 13 14 15 16 17 18 19 20 21 22 23 24 25 26 27 28 29 30 31 32 33 34 35 36 37 38 39 40 41 42 43 44 45 46 47 48 49 50
000
NZUS43 KILX 312210
HWRILX

AREA WEATHER ROUNDUP
NATIONAL WEATHER SERVICE, LINCOLN IL
500 PM CDT MON AUG 31 2015


CITY           SKY/WX    TMP DP  RH WIND       PRES   REMARKS
BLOOMINGTON    MOSUNNY   87  73  62 S10       30.03F HX  94
CHAMPAIGN      MOSUNNY   86  70  58 S6        30.04S HX  90
DANVILLE       MOSUNNY   85  70  61 SW6       30.02S HX  89
DECATUR        MOSUNNY   87  70  56 S10       30.02F HX  92
EFFINGHAM      SUNNY     85  67  55 S3        30.06S HX  87
FLORA          SUNNY     87  67  52 S8        30.04F HX  90
GALESBURG      SUNNY     86  71  61 S5        29.99F HX  92
JACKSONVILLE   MOSUNNY   90  72  55 S7        29.99F HX  97
LACON          SUNNY     87  70  56 SE6       29.99F HX  91
LAWRENCEVILLE  MOSUNNY   86  67  52 S9        30.05F HX  89
LITCHFIELD     MOSUNNY   85  71  62 S9        30.03S HX  90
$$


CITY           SKY/WX    TMP DP  RH WIND       PRES   REMARKS
LINCOLN        SUNNY     86  71  60 SE8       29.99F HX  92
MACOMB         MOSUNNY   89  69  51 S7        30.01S HX  93
MATTOON        MOSUNNY   84  68  58 S8        30.04F HX  87
MT CARMEL AP   MOSUNNY   84  66  54 S9        30.04F HX  86
OLNEY-NOBLE AP PTSUNNY   82  70  65 S5        30.05S HX  86
PARIS          MOSUNNY   86  70  59 S10       30.05S HX  90
PEORIA         MOSUNNY   91  69  48 S7        30.00S HX  96
PONTIAC        MOSUNNY   88  72  58 S6        30.02F HX  94
RANTOUL        MOSUNNY   87  73  62 S7        30.03S HX  93
ROBINSON       MOSUNNY   87  68  52 S8        30.05F HX  90
SPRINGFIELD    MOSUNNY   90  70  51 S13       30.00F HX  95
TAYLORVILLE    SUNNY     86  70  58 S7        30.02S HX  90
$$

...REGIONAL REPORTS...


CITY           SKY/WX    TMP DP  RH WIND       PRES   REMARKS
CHICAGO O`HARE MOSUNNY   85  66  53 SW7       30.01S HX  87
KANKAKEE       MOSUNNY   86  72  62 SW7       30.03S HX  92
MOLINE         MOSUNNY   88  71  57 S9        29.97F HX  94
MOUNT STERLING MOSUNNY   88  72  59 S5        29.99S HX  94
MOUNT VERNON   CLOUDY    88  70  55 S6        30.05S HX  92
PITTSFIELD     SUNNY     90  70  52 S7        30.00F HX  95
QUINCY         MOSUNNY   90  69  50 S7        29.98S HX  94
ROCKFORD       MOSUNNY   84  68  58 SW10      30.02F HX  87
$$


CITY           SKY/WX    TMP DP  RH WIND       PRES   REMARKS
BURLINGTON     MOSUNNY   88  72  58 S6        29.97F HX  94
CEDAR RAPIDS   SUNNY     84  75  74 S6        29.96F HX  92
DES MOINES     MOSUNNY   87  70  56 S9        29.92F HX  92
KIRKSVILLE     MOSUNNY   87  70  56 S8        29.97F HX  92
OTTUMWA        MOSUNNY   87  72  60 S8        29.93F HX  93
ST LOUIS       PTSUNNY   85  68  56 SE9       30.01S THUNDER HX  88
$$


CITY           SKY/WX    TMP DP  RH WIND       PRES   REMARKS
TERRE HAUTE    SUNNY     86  66  51 SW10      30.05S HX  88
EVANSVILLE     SUNNY     86  67  52 S7        30.06S HX  89
INDIANAPOLIS   MOSUNNY   84  66  54 S12       30.05F HX  86
LAFAYETTE      MOSUNNY   86  67  52 SW7       30.03S HX  89
MADISON        MOSUNNY   82  67  60 S12       30.00S HX  84
MILWAUKEE      PTSUNNY   75  66  73 SE12      30.02S
$$





USA.gov is the U.S. government's official web portal to all federal, state and local government web resources and services.